Waarnemingen

Advertentie
Mijn weer
K14A, Nederland (6204): temperatuur & dauwpunt: 18.08.2017 01:00:00 - 24.08.2017 01:00:00 (CEST)K14A, Nederland (6204): windsnelheid & windstoten: 18.08.2017 01:00:00 - 24.08.2017 01:00:00 (CEST)K14A, Nederland (6204): windrichting: 18.08.2017 01:00:00 - 24.08.2017 01:00:00 (CEST)K14A, Nederland (6204): luchtdruk: 18.08.2017 01:00:00 - 24.08.2017 01:00:00 (CEST)K14A, Nederland (6204): zicht: 18.08.2017 01:00:00 - 24.08.2017 01:00:00 (CEST)
Datum & Tijd tt [°C] td [°C] ff [km/u] ff [kn] fx [km/u] fx [kn] dd ppp [hPa] vv [km]
24.08.2017 01:00:00 17,9 16,4 18 10 29 16 - 1012,7 4,5
24.08.2017 00:00:00 18,1 16,6 22 12 29 16 - 1012,8 6
23.08.2017 23:00:00 18,4 17,3 21 11 32 18 - 1012,5 4,9
23.08.2017 22:00:00 18,2 17,7 29 16 36 19 WZW 1012,0 2,5
23.08.2017 21:00:00 19,9 17,1 29 16 32 18 Z 1011,8 10
23.08.2017 20:00:00 20,3 16,8 31 17 32 18 ZZO 1011,8 10
23.08.2017 19:00:00 20,3 16,2 34 18 40 21 ZO 1011,8 10
23.08.2017 18:00:00 20,3 15,9 39 21 36 19 ZO 1012,2 10
23.08.2017 17:00:00 19,8 16,0 39 21 40 21 ZO 1012,8 10
23.08.2017 16:00:00 19,3 15,9 37 20 32 18 OZO 1013,5 10
23.08.2017 15:00:00 19,0 15,5 37 20 36 19 OZO 1014,0 10
23.08.2017 14:00:00 18,7 14,7 35 19 36 19 OZO 1014,6 10
23.08.2017 13:00:00 18,5 14,5 34 18 36 19 OZO 1014,7 10
23.08.2017 12:00:00 18,3 14,4 31 17 32 18 OZO 1015,5 10
23.08.2017 11:00:00 18,2 13,8 31 17 32 18 OZO 1016,0 10
23.08.2017 10:00:00 17,8 13,6 34 18 36 19 OZO 1016,1 10
23.08.2017 09:00:00 18,0 13,5 37 20 40 21 OZO 1015,8 10
23.08.2017 08:00:00 17,7 13,5 35 19 36 19 OZO 1016,4 10
23.08.2017 07:00:00 17,7 13,5 37 20 36 19 OZO 1016,6 10
23.08.2017 06:00:00 17,9 12,9 39 21 40 21 OZO 1016,7 10
23.08.2017 05:00:00 17,7 13,2 37 20 40 21 OZO 1016,9 10
23.08.2017 04:00:00 17,7 13,3 39 21 36 19 OZO 1017,6 10
23.08.2017 03:00:00 17,6 13,6 39 21 40 21 OZO 1018,4 10
23.08.2017 02:00:00 17,6 13,3 41 22 40 21 OZO 1018,4 10
23.08.2017 01:00:00 17,9 13,5 41 22 40 21 O 1018,8 10
23.08.2017 00:00:00 18,1 13,7 41 22 40 21 O 1019,1 10
22.08.2017 23:00:00 18,1 14,2 39 21 40 21 O 1019,4 10
22.08.2017 22:00:00 18,3 14,0 37 20 36 19 O 1019,7 10
22.08.2017 21:00:00 18,4 13,9 35 19 36 19 O 1019,8 10
22.08.2017 20:00:00 18,5 14,0 31 17 32 18 O 1019,6 10
22.08.2017 19:00:00 18,5 13,6 29 16 29 16 O 1020,0 10
22.08.2017 18:00:00 18,5 13,0 31 17 29 16 O 1020,3 10
22.08.2017 17:00:00 18,4 13,1 28 15 25 14 O 1020,9 10
22.08.2017 16:00:00 18,4 13,3 26 14 25 14 O 1021,5 10
22.08.2017 15:00:00 18,4 13,5 22 12 22 12 O 1021,8 10
22.08.2017 14:00:00 18,1 13,9 22 12 22 12 OZO 1021,9 10
22.08.2017 13:00:00 18,1 13,8 18 10 18 10 OZO 1022,0 10
22.08.2017 12:00:00 18,2 14,1 21 11 22 12 OZO 1022,2 10
22.08.2017 11:00:00 18,2 14,1 21 11 22 12 OZO 1022,4 10
22.08.2017 10:00:00 17,8 13,6 18 10 22 12 ZO 1022,2 10
22.08.2017 09:00:00 17,8 13,8 21 11 22 12 OZO 1022,1 10
22.08.2017 08:00:00 17,5 13,7 18 10 18 10 ZO 1021,9 10
22.08.2017 07:00:00 17,5 13,8 18 10 25 14 ZO 1021,7 10
22.08.2017 06:00:00 17,4 13,4 18 10 22 12 ZO 1021,9 10
22.08.2017 05:00:00 17,5 13,2 21 11 22 12 ZZO 1021,9 10
22.08.2017 04:00:00 17,5 13,3 18 10 22 12 ZO 1022,2 10
22.08.2017 03:00:00 17,8 13,2 21 11 22 12 ZO 1022,4 10
22.08.2017 02:00:00 17,6 13,1 21 11 22 12 ZO 1022,1 10
22.08.2017 01:00:00 17,5 13,0 18 10 22 12 ZO 1022,3 10
22.08.2017 00:00:00 17,7 12,6 18 10 18 10 OZO 1022,8 10
21.08.2017 23:00:00 17,7 12,8 16 9 18 10 OZO 1023,1 10
21.08.2017 22:00:00 17,8 12,7 15 8 18 10 OZO 1022,9 10
21.08.2017 21:00:00 17,8 12,2 11 6 14 8 ZO 1023,0 10
21.08.2017 20:00:00 17,6 11,9 13 7 14 8 OZO 1022,7 10
21.08.2017 19:00:00 18,5 11,9 13 7 14 8 OZO 1022,8 10
21.08.2017 18:00:00 18,4 11,8 13 7 14 8 OZO 1023,1 10
21.08.2017 17:00:00 17,5 11,9 11 6 14 8 ZO 1023,3 10
21.08.2017 16:00:00 17,3 11,9 11 6 14 8 ZO 1023,3 10
21.08.2017 15:00:00 17,4 12,1 11 6 14 8 ZO 1023,5 10
21.08.2017 14:00:00 17,3 11,2 15 8 14 8 OZO 1023,6 10
21.08.2017 13:00:00 17,5 12,3 13 7 14 8 OZO 1023,8 10
21.08.2017 12:00:00 17,2 12,1 11 6 11 6 O 1023,7 10
21.08.2017 11:00:00 17,2 12,0 9 5 11 6 O 1023,8 10
21.08.2017 10:00:00 17,1 12,0 9 5 11 6 NO 1023,7 10
21.08.2017 09:00:00 16,9 11,1 9 5 11 6 NO 1023,5 10
21.08.2017 08:00:00 16,8 10,5 8 4 11 6 N 1022,9 10
21.08.2017 07:00:00 16,8 10,0 5 3 7 4 - 1022,7 10
21.08.2017 06:00:00 17,0 10,2 8 4 11 6 WZW 1022,7 10
21.08.2017 05:00:00 17,0 9,6 8 4 11 6 WZW 1022,9 10
21.08.2017 04:00:00 17,1 9,9 5 3 14 8 ZW 1023,1 10
21.08.2017 03:00:00 17,1 10,2 11 6 18 10 ZW 1023,3 49
21.08.2017 02:00:00 16,7 10,1 11 6 22 12 ZW 1023,2 50
21.08.2017 01:00:00 17,0 10,3 15 8 22 12 ZW 1023,4 10
21.08.2017 00:00:00 16,8 10,1 18 10 22 12 WZW 1023,1 10
20.08.2017 23:00:00 16,7 10,6 16 9 22 12 NW 1023,3 10
20.08.2017 22:00:00 16,5 10,7 13 7 22 12 - 1023,3 10
20.08.2017 21:00:00 16,3 10,3 15 8 29 16 - 1023,2 10
20.08.2017 20:00:00 16,0 10,7 15 8 29 16 W 1023,1 10
20.08.2017 19:00:00 15,9 11,0 16 9 29 16 - 1023,0 10
20.08.2017 18:00:00 16,0 11,2 22 12 32 18 - 1022,9 10
20.08.2017 17:00:00 15,9 11,3 28 15 40 21 - 1023,1 10
20.08.2017 16:00:00 15,6 11,1 29 16 40 21 W 1022,9 10
20.08.2017 15:00:00 15,8 11,2 29 16 36 19 - 1022,5 10
20.08.2017 14:00:00 15,7 10,7 34 18 40 21 W 1022,1 10
20.08.2017 13:00:00 15,8 11,3 29 16 40 21 W 1021,6 10
20.08.2017 12:00:00 15,8 11,3 29 16 40 21 - 1021,1 10
20.08.2017 11:00:00 15,8 11,6 29 16 40 21 - 1020,7 10
20.08.2017 10:00:00 15,7 10,9 31 17 43 23 - 1020,5 10
20.08.2017 09:00:00 15,8 10,7 34 18 43 23 W 1019,8 10
20.08.2017 08:00:00 15,7 10,9 35 19 43 23 W 1019,0 10
20.08.2017 07:00:00 15,9 11,5 41 22 47 25 W 1018,7 10
20.08.2017 06:00:00 16,0 11,3 44 24 50 27 W 1018,5 10
20.08.2017 05:00:00 16,3 11,1 42 23 58 31 W 1018,0 10
20.08.2017 04:00:00 16,3 11,5 55 30 58 31 W 1017,8 10
20.08.2017 03:00:00 16,4 11,1 54 29 54 29 W 1017,7 10
20.08.2017 02:00:00 16,7 10,3 57 31 58 31 W 1017,4 10
20.08.2017 01:00:00 16,7 9,8 57 31 58 31 W 1017,3 10
20.08.2017 00:00:00 17,0 9,1 52 28 54 29 W 1017,2 10
19.08.2017 23:00:00 17,1 10,5 54 29 54 29 W 1016,9 10
19.08.2017 22:00:00 17,0 9,6 50 27 50 27 W 1016,6 10
19.08.2017 21:00:00 16,9 9,3 39 21 61 33 W 1016,1 10
19.08.2017 20:00:00 17,2 9,9 50 27 54 29 W 1015,7 10
19.08.2017 19:00:00 16,5 11,5 52 28 72 39 W 1015,4 10
19.08.2017 18:00:00 15,3 11,1 41 22 68 37 W 1015,6 10
19.08.2017 17:00:00 17,1 9,3 46 25 50 27 WZW 1015,0 10
19.08.2017 16:00:00 16,7 9,6 54 29 54 29 WZW 1015,1 10
19.08.2017 15:00:00 16,4 10,7 52 28 58 31 W 1014,9 10
19.08.2017 14:00:00 16,0 10,6 52 28 54 29 W 1014,5 10
19.08.2017 13:00:00 15,8 10,2 52 28 50 27 W 1013,7 10
19.08.2017 12:00:00 15,7 10,1 42 23 54 29 W 1013,4 10
19.08.2017 11:00:00 15,6 10,6 48 26 50 27 W 1012,9 10
19.08.2017 10:00:00 14,9 11,7 41 22 43 23 WZW 1012,1 10
19.08.2017 09:00:00 15,1 10,4 35 19 43 23 WZW 1011,5 10
19.08.2017 08:00:00 15,1 10,6 34 18 36 19 WZW 1011,0 10
19.08.2017 07:00:00 15,3 10,7 35 19 36 19 W 1010,5 10
19.08.2017 06:00:00 15,3 9,9 35 19 40 21 W 1010,1 10
19.08.2017 05:00:00 15,5 10,0 35 19 40 21 W 1009,7 10
19.08.2017 04:00:00 15,6 10,6 39 21 40 21 W 1009,6 10
19.08.2017 03:00:00 16,1 11,2 42 23 43 23 WZW 1009,9 10
19.08.2017 02:00:00 16,3 11,2 44 24 50 27 WZW 1010,0 10
19.08.2017 01:00:00 16,3 10,3 46 25 50 27 WZW 1009,9 10
19.08.2017 00:00:00 16,7 10,2 46 25 47 25 WZW 1010,0 10
18.08.2017 23:00:00 17,0 9,5 42 23 43 23 WZW 1009,8 10
18.08.2017 22:00:00 16,0 10,5 24 13 29 16 ZZW 1009,7 10
18.08.2017 21:00:00 15,2 9,7 15 8 22 12 ZW 1009,6 10
18.08.2017 20:00:00 14,1 9,4 54 29 61 33 W 1009,2 6
18.08.2017 19:00:00 17,7 10,1 21 11 29 16 WZW 1008,7 10
18.08.2017 18:00:00 17,9 10,2 26 14 32 18 W 1009,1 10
18.08.2017 17:00:00 17,5 10,8 18 10 36 19 - 1009,0 10
18.08.2017 16:00:00 17,4 12,2 34 18 36 19 W 1008,7 10
18.08.2017 15:00:00 17,6 13,1 28 15 32 18 WZW 1008,8 10
18.08.2017 14:00:00 17,4 13,1 37 20 40 21 WZW 1009,1 10
18.08.2017 13:00:00 17,2 13,5 34 18 40 21 ZW 1008,6 10
18.08.2017 12:00:00 17,7 14,1 35 19 40 21 ZW 1008,8 10
18.08.2017 11:00:00 17,7 14,2 39 21 40 21 ZW 1008,7 10
18.08.2017 10:00:00 17,7 14,2 42 23 40 21 ZZW 1008,9 10
18.08.2017 09:00:00 17,7 14,7 41 22 40 21 ZZW 1009,0 10
18.08.2017 08:00:00 17,7 14,4 34 18 40 21 ZW 1008,8 10
18.08.2017 07:00:00 17,7 14,9 42 23 40 21 ZW 1008,9 10
18.08.2017 06:00:00 17,9 15,4 42 23 43 23 ZW 1009,1 10
18.08.2017 05:00:00 18,0 15,3 37 20 43 23 ZW 1009,3 10
18.08.2017 04:00:00 18,5 15,7 41 22 40 21 ZW 1009,5 10
18.08.2017 03:00:00 18,8 16,3 31 17 36 19 ZW 1009,6 10
18.08.2017 02:00:00 19,0 15,7 34 18 36 19 ZZW 1010,3 10
18.08.2017 01:00:00 19,2 15,4 37 20 36 19 ZW 1010,4 10

tt = temperatuur
td = dauwpunt
ff = windsnelheid
fx = windstoten
dd = windrichting
ppp = luchtdruk
vv = zicht

Weerstations in de omgeving